GFSSW_925_spd_000.txt.gz
Wind_Speed
15 16 17 18 18 18 19 20 21 22 23 23 23 24 24 24 22 18 11 18 11 17 12 9 11 11 10 4 3 4 2 6 7 7 8 1 3 2 1 4 2 6 5 7 5
19 19 19 19 19 19 20 20 20 20 21 21 21 21 23 23 22 14 34 25 23 19 15 15 8 12 4 6 4 5 6 11 11 8 6 4 2 5 4 9 6 7 8 10 10
18 18 19 19 19 20 20 21 21 20 18 19 21 21 21 19 6 9 12 9 21 30 22 16 17 9 6 4 7 7 14 19 14 13 2 5 8 1 6 15 14 8 11 5 8
20 19 19 20 21 21 21 20 20 20 20 19 19 19 21 4 8 3 14 16 5 20 19 15 8 9 7 11 7 4 12 19 17 9 5 6 4 13 11 17 18 14 10 5 9
20 20 20 21 21 21 21 20 20 19 19 18 17 15 10 4 9 10 12 20 12 10 15 10 12 8 9 7 10 9 10 9 10 10 11 7 11 18 19 23 12 12 9 12 11
22 22 22 22 22 22 24 25 25 23 19 17 15 12 7 17 11 22 26 21 11 8 8 9 9 6 6 7 8 6 14 17 10 20 18 16 15 11 26 17 12 11 14 10 12
22 23 23 24 23 24 24 25 26 25 23 18 14 12 14 25 17 12 16 18 6 16 7 20 17 8 6 3 6 5 7 8 11 16 8 10 14 21 28 6 11 13 13 11 13
24 25 25 24 24 24 25 26 28 30 24 18 12 12 12 11 19 26 28 37 30 16 13 18 23 6 3 2 3 2 2 3 7 5 6 11 14 23 17 8 17 14 12 11 13
24 25 27 26 25 25 27 28 31 26 17 12 7 7 12 12 11 28 33 19 16 22 21 10 9 7 4 8 7 3 9 10 8 7 4 8 12 15 5 4 11 11 12 11 13
24 26 26 24 24 24 28 32 17 5 6 4 7 4 7 5 14 13 15 29 8 5 4 6 5 6 5 7 16 5 5 6 10 2 4 10 15 18 24 9 12 10 11 11 11
25 25 25 24 23 22 25 13 5 2 2 5 6 10 17 12 18 5 5 12 8 5 10 7 8 20 22 13 6 7 14 13 3 4 7 10 10 14 17 7 10 15 16 14 13
26 25 23 23 23 23 17 1 3 4 10 11 20 23 35 25 12 15 12 8 10 18 13 6 27 20 11 14 14 9 12 17 12 4 7 10 13 15 17 16 10 16 19 15 6
27 25 23 23 25 7 6 8 4 14 5 9 12 9 10 16 17 26 8 6 6 14 24 26 19 12 15 9 13 13 18 17 11 6 6 7 13 12 14 9 7 10 12 9 10
26 24 23 22 6 9 9 2 16 6 4 8 3 6 5 7 9 31 11 8 7 19 18 17 24 18 10 18 15 18 15 15 12 5 8 5 6 9 9 17 9 11 9 9 9
24 24 22 14 12 5 5 12 17 3 5 3 3 5 4 7 8 9 35 8 10 10 10 13 18 20 23 24 20 13 7 7 7 7 2 5 5 6 5 10 14 11 11 10 7
25 25 19 14 6 14 10 16 2 2 7 5 5 11 11 7 13 8 9 19 5 6 9 15 6 19 12 9 13 4 3 4 4 1 10 13 7 5 6 12 6 6 7 7 5
28 26 17 11 4 3 12 2 2 4 6 2 7 14 20 12 7 6 11 17 12 13 13 5 9 3 7 13 5 7 7 2 4 1 6 6 6 15 11 10 9 12 10 2 3
30 22 12 7 8 3 3 2 5 3 6 12 14 15 11 14 9 20 7 14 22 2 11 9 6 15 7 10 13 15 9 6 6 3 5 5 7 9 13 14 10 11 5 8 7
27 14 6 9 3 8 3 2 4 2 4 10 12 8 7 12 5 12 7 3 8 22 5 10 8 4 15 7 18 11 10 12 1 2 1 4 8 8 6 9 5 0 4 7 7
16 8 7 12 4 4 1 3 3 5 8 7 5 5 7 11 8 12 6 12 11 8 15 3 3 7 14 9 19 9 11 7 6 6 3 5 5 6 2 6 3 6 8 7 7
5 3 7 9 8 2 1 3 4 8 7 3 3 4 8 12 6 3 8 8 22 23 10 1 4 3 10 16 17 5 7 3 8 5 5 1 6 8 9 9 9 9 8 9 13
4 3 2 9 2 1 3 3 8 7 6 6 5 9 8 9 4 1 5 9 22 19 11 3 1 4 12 8 21 22 16 8 7 4 4 3 6 3 9 7 7 7 7 6 6
4 3 3 1 2 2 4 4 4 5 5 4 5 3 7 7 6 5 3 4 11 15 14 7 4 2 5 2 2 22 17 16 5 3 14 8 6 3 5 6 5 8 9 8 7
2 4 3 3 1 3 6 6 4 6 8 4 4 6 5 6 7 4 7 2 7 15 16 7 3 5 9 5 5 5 15 19 11 4 3 10 2 5 4 7 5 8 7 9 8
3 2 1 4 3 8 5 3 5 4 4 6 3 4 4 4 6 1 5 3 5 9 11 2 3 5 10 12 3 6 12 19 17 23 12 4 8 6 8 8 6 8 9 11 11
2 2 3 5 7 8 4 3 4 5 4 5 3 11 7 5 6 7 8 4 1 3 5 3 3 6 4 8 14 10 7 16 22 20 16 4 10 9 1 7 6 10 12 12 12
3 4 2 4 4 2 2 4 8 11 8 7 9 13 10 11 3 9 8 7 5 3 4 4 4 6 4 7 4 7 15 8 9 13 18 12 24 4 4 7 9 10 13 14 14

GFSSW_925_spd_003.txt.gz
Wind_Speed
14 15 15 14 13 14 15 15 15 16 16 16 18 19 20 22 24 17 13 13 9 9 10 10 9 7 10 8 6 4 7 13 16 12 10 1 4 2 4 9 5 4 10 12 6
15 16 16 17 18 17 14 14 14 15 14 14 15 17 19 19 18 12 30 29 28 21 17 16 9 12 7 8 7 8 12 20 16 15 13 10 5 10 8 17 19 16 15 12 8
15 15 16 17 18 18 18 17 16 14 15 15 15 15 16 14 6 5 12 7 15 23 19 14 14 16 11 5 11 10 20 26 21 18 10 18 17 13 16 24 22 19 20 22 15
18 17 17 17 17 17 19 19 18 17 15 14 14 13 15 4 8 11 6 12 19 18 20 17 13 12 12 17 16 15 23 24 25 17 13 20 17 18 21 28 22 23 19 20 19
20 20 20 20 20 20 19 18 19 19 18 16 13 12 7 5 9 10 14 16 9 8 18 17 18 18 15 15 18 22 22 20 22 21 20 18 20 20 28 27 22 22 19 19 18
20 20 22 22 22 22 22 22 21 21 21 17 13 11 6 14 10 19 22 22 5 7 11 16 9 13 10 11 20 11 24 23 18 16 21 21 26 19 25 22 20 19 20 20 18
20 21 22 23 23 22 23 25 24 23 20 17 13 9 13 23 13 15 14 15 5 5 10 16 24 8 5 9 15 14 15 13 14 15 14 9 26 20 29 19 21 24 19 19 18
21 23 23 23 22 23 24 27 27 27 22 17 13 9 9 11 14 23 21 22 22 21 15 14 18 18 9 4 1 10 11 18 12 19 12 13 32 20 18 13 17 18 16 16 19
24 25 25 24 23 23 25 28 32 18 11 6 5 6 11 6 9 15 18 20 16 15 15 8 14 11 8 15 9 11 14 15 13 11 5 16 21 17 10 8 15 18 18 18 18
25 26 27 26 25 24 26 31 10 3 5 5 3 4 7 3 4 15 14 18 13 10 8 9 9 12 14 17 21 15 15 14 16 11 17 23 26 19 18 14 18 19 17 18 20
25 26 26 23 24 24 29 9 2 2 3 7 7 8 19 15 17 9 4 4 12 17 16 20 13 25 31 22 18 18 20 25 22 15 15 19 19 14 16 18 20 20 19 20 20
27 27 24 24 22 24 7 3 5 3 11 16 23 23 33 22 12 16 10 8 10 21 22 13 30 26 20 21 23 22 23 21 14 12 10 17 20 16 17 22 22 19 20 21 19
28 25 24 23 24 5 7 5 2 10 5 15 11 10 8 9 12 24 7 8 13 20 30 30 35 18 22 22 23 25 25 23 19 15 14 17 22 19 20 11 16 17 19 20 18
26 24 25 23 8 8 6 1 10 4 4 6 3 4 2 4 7 18 18 14 13 23 24 23 24 25 26 28 22 25 24 20 18 11 14 3 14 17 19 22 22 21 17 17 16
25 24 23 15 10 5 3 10 13 4 5 2 3 2 8 5 11 5 21 16 19 13 20 20 24 20 25 28 27 16 11 15 16 17 16 17 11 12 14 22 24 20 19 15 9
27 27 21 8 4 9 9 13 2 3 8 3 2 8 16 6 9 10 5 20 17 22 22 21 13 27 25 20 21 12 7 8 6 7 12 15 11 14 14 20 18 14 13 4 6
31 28 14 4 3 1 8 2 3 5 6 0 5 12 16 11 8 10 14 12 16 18 20 19 18 8 17 18 17 20 12 5 6 8 9 16 13 18 14 19 18 19 11 5 1
31 22 5 3 7 4 2 2 6 4 8 12 12 16 15 10 6 11 18 12 20 18 11 15 14 21 20 20 14 24 20 8 7 5 10 5 9 7 16 19 22 17 12 2 6
30 8 3 10 7 8 2 3 3 4 5 10 15 9 6 8 7 8 8 11 10 24 7 15 15 16 19 15 21 17 18 15 6 2 7 3 6 11 18 14 11 10 6 6 9
11 5 5 10 5 3 2 3 4 7 10 7 7 7 11 10 9 6 4 11 13 11 11 7 12 13 22 22 23 19 17 10 9 8 8 8 8 8 14 8 8 8 7 9 11
7 2 1 12 5 2 2 4 5 10 10 4 6 9 10 11 6 2 4 6 14 15 12 11 7 15 18 24 24 11 16 7 10 7 6 4 5 11 16 12 8 3 8 10 12
5 2 7 11 1 1 4 9 7 9 9 7 7 9 10 11 7 3 4 2 7 10 8 5 6 9 27 15 20 21 20 20 9 9 10 3 6 2 8 7 6 2 8 13 12
5 3 5 4 4 6 8 6 5 7 8 5 6 5 12 8 5 3 4 4 3 4 3 7 7 11 9 6 17 25 20 17 4 5 16 9 5 4 3 3 0 5 12 13 14
3 4 3 3 1 5 7 5 7 8 9 6 10 8 12 6 4 5 6 2 3 4 17 6 4 8 12 14 7 25 23 19 14 9 8 17 12 20 16 7 5 6 11 15 15
3 2 1 4 4 9 6 6 9 7 5 7 2 4 8 6 11 4 3 1 2 7 13 3 3 6 14 8 4 21 22 24 20 16 8 6 20 20 13 8 3 9 11 15 17
3 3 2 6 8 9 4 4 9 8 5 10 6 13 13 11 13 14 5 4 3 4 8 5 1 5 11 11 7 7 8 21 25 22 18 14 18 13 13 2 5 12 14 15 17
1 4 2 5 4 4 3 5 7 13 8 8 13 16 15 13 8 11 12 12 11 5 5 6 6 4 8 4 6 6 2 7 15 20 21 20 24 13 14 11 5 13 17 17 19

GFSSW_925_spd_006.txt.gz
Wind_Speed
16 17 18 17 18 18 18 16 16 16 17 17 16 18 21 22 23 14 14 12 6 7 5 7 13 11 13 16 16 15 11 15 20 20 17 12 11 4 3 11 13 9 14 13 16
16 15 15 16 16 16 17 17 17 17 15 16 17 17 18 19 20 20 18 21 21 18 11 18 17 18 14 17 12 16 15 24 21 22 19 22 14 14 10 16 19 18 19 13 13
17 17 18 19 19 19 18 17 17 16 15 16 15 16 15 16 11 9 10 5 3 25 25 22 19 16 21 20 21 20 27 24 24 25 23 21 22 22 19 19 21 20 22 20 20
17 16 17 18 19 20 19 18 17 15 16 16 15 13 12 8 9 5 11 6 14 15 24 27 20 21 19 26 23 29 30 25 26 27 23 21 25 24 23 22 24 22 22 23 21
17 17 18 18 19 18 19 20 20 18 16 15 14 12 9 9 16 5 12 14 7 6 24 24 25 22 27 23 26 33 28 26 23 24 25 23 26 27 28 21 26 23 21 19 19
17 19 20 20 21 21 21 21 21 21 20 16 14 11 12 17 8 11 14 14 10 10 12 23 15 22 23 28 27 26 27 31 27 24 22 23 27 28 28 17 28 23 23 20 20
17 18 21 21 21 23 22 22 23 22 23 18 13 10 15 21 13 14 19 19 12 10 13 16 26 13 16 21 25 24 27 28 21 24 26 20 31 30 27 21 26 23 20 18 18
20 22 23 23 23 23 24 26 25 27 24 18 13 11 9 12 15 21 19 22 21 22 16 14 16 22 21 14 17 22 27 27 25 20 18 18 36 27 19 21 20 17 17 17 18
21 22 23 23 22 22 26 29 29 17 12 6 7 9 11 5 11 15 11 17 17 20 18 17 20 21 17 23 19 25 26 31 30 27 26 26 39 29 26 16 16 16 18 17 19
25 25 25 24 23 24 27 25 10 2 1 5 6 6 8 10 2 5 13 12 11 14 14 20 13 16 21 21 27 26 26 27 30 23 22 26 31 27 24 24 21 21 19 20 19
26 26 23 23 23 24 23 12 4 7 8 12 7 14 21 20 13 18 10 6 11 14 26 23 20 27 42 30 27 25 25 30 24 24 24 24 29 29 27 19 23 23 19 21 20
28 25 23 24 24 25 8 8 4 5 12 16 21 22 29 28 17 18 15 11 15 21 25 22 30 45 28 28 26 27 29 29 24 24 20 20 26 26 24 25 25 26 22 23 19
26 24 23 24 23 6 10 8 4 9 7 16 9 10 5 5 12 17 18 19 21 21 30 35 47 26 30 28 30 29 29 26 25 22 19 22 25 27 27 30 28 23 21 19 20
25 26 24 23 9 7 10 2 6 8 6 10 6 6 6 3 6 14 12 21 19 27 24 33 34 28 32 33 30 30 25 23 22 19 19 18 21 23 21 25 22 23 22 22 21
26 28 23 15 12 7 5 6 8 5 6 6 7 6 6 6 8 3 8 14 26 23 16 36 26 34 31 39 28 26 15 20 20 19 20 23 14 22 23 24 23 22 23 21 18
30 26 23 6 4 8 7 8 7 6 8 1 2 3 9 10 6 6 6 11 13 27 26 29 18 26 38 22 27 22 14 18 15 14 16 21 20 21 19 22 21 14 11 9 8
34 29 9 3 5 6 7 7 6 7 5 1 6 11 16 16 9 7 10 8 12 15 26 24 28 24 22 30 24 24 21 10 11 12 14 15 12 20 17 20 20 15 5 7 4
32 9 1 4 6 5 4 5 5 5 7 15 12 17 20 16 5 7 13 12 17 22 19 22 20 32 25 29 23 29 25 12 15 12 13 7 9 10 11 15 13 12 12 3 5
20 2 3 8 4 2 3 5 5 10 8 11 16 16 11 3 6 5 5 7 11 15 20 18 28 30 22 26 28 31 25 23 14 3 6 7 9 14 20 18 15 8 5 5 9
13 4 5 7 4 5 1 5 6 8 12 13 15 7 12 12 10 3 6 5 11 16 13 10 16 25 31 26 29 26 24 20 13 14 15 7 10 10 13 10 7 10 7 10 13
7 4 6 9 2 2 4 6 11 9 11 8 13 14 14 11 7 4 4 2 4 14 11 13 9 21 27 25 27 17 22 19 15 10 8 4 4 11 14 11 3 5 9 15 16
6 3 7 8 3 3 5 12 10 10 11 10 8 9 8 10 14 7 6 6 3 9 8 8 5 13 26 25 24 26 18 24 13 16 13 7 7 5 5 6 4 4 11 16 17
6 3 4 8 4 6 8 17 13 13 14 9 11 7 14 15 7 6 7 6 4 5 4 4 10 10 18 22 22 28 24 22 16 10 16 13 4 5 5 8 6 5 13 17 19
4 4 1 3 2 7 12 9 12 11 11 9 14 6 11 14 3 7 10 5 7 5 14 12 10 15 8 24 18 25 26 26 21 12 14 16 10 11 8 6 9 6 13 16 18
4 5 3 5 7 12 9 9 12 9 6 12 8 7 13 12 16 2 7 6 8 8 7 4 16 19 15 6 8 25 26 23 24 21 16 12 19 18 6 6 11 3 12 16 18
4 3 5 10 9 11 8 8 14 14 7 11 11 16 16 15 14 16 13 6 4 6 8 7 12 16 15 12 7 14 26 24 25 23 16 11 13 7 2 4 6 1 12 15 17
1 4 3 7 6 7 7 13 10 14 7 10 13 14 15 11 13 15 14 13 13 16 8 6 6 13 16 12 6 11 21 22 22 21 18 18 17 12 9 10 12 10 9 12 17

GFSSW_925_spd_009.txt.gz
Wind_Speed
18 17 16 16 17 16 16 17 19 20 20 19 19 20 21 21 22 15 18 15 17 20 8 11 15 19 17 17 24 17 16 18 24 22 19 20 15 16 1 10 16 15 13 15 19
18 18 18 19 18 18 17 18 17 17 19 21 20 19 20 19 23 23 24 17 21 14 15 19 18 20 18 20 19 20 18 25 23 20 18 21 22 19 17 13 16 16 19 22 15
18 19 19 20 21 21 19 17 17 17 17 17 20 20 19 18 15 12 8 20 24 24 25 25 24 21 24 22 23 25 25 25 24 24 25 25 27 25 21 21 22 18 18 19 19
18 18 19 21 22 23 23 21 19 18 17 16 16 18 16 12 9 7 8 8 2 8 23 29 26 26 26 27 26 29 31 28 29 29 29 32 31 30 24 21 24 19 19 20 21
18 18 20 20 21 22 23 22 22 22 20 19 16 14 13 10 16 19 4 10 11 10 22 26 30 29 33 28 28 32 32 31 31 31 34 32 29 33 27 23 24 26 21 22 21
18 19 20 22 23 23 22 23 22 21 21 19 16 12 15 22 11 12 14 16 15 15 17 24 28 30 32 33 33 32 33 33 33 34 31 33 33 29 27 25 28 27 22 25 26
21 21 22 23 23 24 23 24 24 23 23 20 16 14 17 21 19 20 19 20 19 19 18 21 26 26 26 33 31 33 36 35 35 32 32 24 32 36 29 27 28 29 24 25 23
22 24 25 25 24 24 24 27 27 27 25 20 14 14 15 17 22 24 24 24 23 24 24 22 17 24 28 24 27 32 31 29 34 34 31 28 35 31 28 27 29 27 21 25 19
23 23 23 23 23 25 28 31 27 20 13 8 9 12 17 4 17 14 20 20 20 25 25 24 19 18 19 23 22 26 28 38 32 31 28 30 37 31 27 26 27 28 29 17 21
24 25 24 24 24 27 29 26 18 13 4 7 14 9 14 14 7 2 4 12 16 16 19 23 13 18 20 21 27 31 32 30 33 30 28 32 35 33 29 21 26 27 27 23 21
25 25 24 24 26 28 28 23 3 8 16 13 13 13 21 16 13 18 13 14 14 13 24 25 18 27 45 33 30 30 26 31 32 28 27 29 30 31 19 23 27 27 28 23 22
27 27 28 28 29 21 12 10 10 9 12 21 23 26 29 25 22 20 23 19 17 20 22 25 33 46 25 31 31 31 31 32 29 27 21 22 23 25 25 25 25 27 26 24 25
27 26 29 28 26 13 13 11 9 12 10 24 24 21 19 15 19 19 20 21 24 22 25 30 44 25 33 30 31 32 31 29 29 24 20 19 27 28 25 27 27 28 29 28 27
29 29 27 29 15 18 10 8 11 11 7 20 10 6 9 7 13 12 15 17 24 29 25 27 33 34 32 36 34 31 29 27 23 20 18 20 22 23 21 23 25 23 22 21 20
33 32 27 17 15 11 12 11 10 5 6 5 8 9 4 8 9 5 8 13 19 23 19 34 29 36 36 40 30 35 25 24 23 21 22 23 16 18 21 22 25 24 23 21 20
37 28 20 4 8 9 12 10 7 5 8 2 5 4 9 10 13 10 9 13 11 18 28 32 29 27 39 34 30 27 27 24 18 17 19 21 19 24 19 20 18 13 13 17 18
35 14 7 7 8 12 11 7 5 7 3 5 10 13 12 16 15 17 13 11 14 14 21 29 30 29 30 32 36 29 22 15 16 17 20 18 17 21 18 17 18 16 16 3 5
24 8 2 8 10 11 8 3 7 13 13 16 16 15 17 18 19 15 12 14 20 20 20 22 26 33 27 33 37 30 29 15 26 11 16 23 16 16 14 9 10 13 11 13 6
18 2 2 6 9 5 2 5 6 16 17 13 17 16 19 8 10 10 15 16 4 8 6 20 28 27 35 25 26 38 28 32 21 22 11 14 10 14 17 14 13 13 9 9 11
16 7 2 6 3 6 3 7 10 8 11 15 18 13 14 17 12 11 11 2 8 7 12 16 24 26 27 27 32 35 27 25 21 23 14 14 9 10 5 9 7 13 10 13 14
11 2 3 6 3 4 5 8 14 14 13 10 19 19 17 11 13 13 4 5 6 13 11 21 11 17 28 32 32 28 25 29 21 17 14 12 10 3 6 10 7 13 11 15 16
8 4 6 7 3 3 6 15 16 16 14 14 14 16 15 15 15 19 11 4 1 10 11 16 5 10 19 30 31 31 28 32 15 22 17 9 6 6 5 3 4 3 13 16 17
6 3 5 4 5 7 14 17 12 12 13 14 7 16 16 14 8 8 12 11 11 5 5 8 8 9 12 18 27 33 31 26 28 15 20 10 2 10 7 8 1 5 15 16 18
5 4 2 2 3 9 14 15 14 12 15 10 18 10 13 17 2 4 7 5 10 7 13 11 10 14 6 14 23 30 36 31 29 16 17 18 11 10 9 10 9 8 14 17 17
3 5 4 6 8 12 15 14 15 12 9 18 11 7 12 17 17 3 5 15 8 11 5 5 17 21 12 23 25 24 27 25 30 21 18 16 15 13 13 11 5 9 15 16 17
5 5 8 12 8 12 10 12 15 19 11 12 12 17 15 15 15 17 13 13 6 5 3 9 20 21 15 22 25 30 30 28 24 25 16 9 15 11 1 10 13 7 14 15 17
4 7 3 10 6 7 10 14 19 19 9 12 14 16 16 15 18 20 17 16 15 15 14 6 8 8 15 20 18 17 30 26 25 25 20 12 8 7 12 13 9 8 6 12 13

GFSSW_925_spd_012.txt.gz
Wind_Speed
17 17 17 17 18 19 19 18 17 17 16 18 21 21 22 23 23 16 18 20 13 26 11 9 11 16 20 19 20 19 15 16 23 23 21 19 19 17 9 15 9 17 13 14 14
18 19 19 19 18 18 19 18 18 17 17 17 18 20 20 22 25 26 25 25 27 17 14 16 16 17 16 17 18 18 17 26 23 20 21 21 20 17 17 14 17 13 25 20 15
20 19 19 19 20 19 18 17 16 17 17 18 18 19 20 20 13 9 8 18 24 22 20 20 22 19 22 21 22 24 26 25 26 25 25 27 25 20 23 24 18 19 15 21 12
19 20 21 23 23 22 21 20 18 17 18 17 18 19 19 11 7 6 8 2 11 14 17 21 18 25 25 27 26 28 30 28 29 26 26 28 26 27 25 26 22 22 16 18 12
21 21 22 23 24 26 26 25 23 22 20 18 16 17 13 10 14 13 10 4 6 13 20 21 24 25 29 27 28 30 29 29 29 29 28 29 29 28 28 29 22 23 21 18 18
22 23 24 24 25 25 25 26 25 25 24 22 17 13 14 22 13 16 15 13 15 16 21 22 23 24 26 29 29 31 30 31 31 31 29 30 29 28 28 25 26 23 21 21 22
24 26 27 27 26 26 27 28 29 26 27 25 20 15 18 23 20 22 20 18 17 19 19 23 22 22 27 31 32 31 33 32 31 31 32 27 32 30 26 25 23 25 24 22 21
23 25 27 27 27 28 30 32 31 31 25 22 17 13 12 22 24 27 25 27 26 26 26 25 26 24 22 26 31 32 33 29 31 30 36 27 31 31 26 27 23 24 22 20 25
23 24 25 25 26 29 31 34 32 21 17 13 8 12 13 8 14 19 18 22 23 22 24 24 24 21 18 21 22 26 23 33 38 30 33 33 30 33 25 26 25 24 22 19 20
24 25 27 28 30 31 36 34 27 22 15 11 16 10 15 12 15 8 4 5 9 15 18 22 16 19 18 19 25 23 30 35 30 27 28 29 28 28 25 27 25 24 17 17 18
27 28 29 30 31 33 30 18 10 5 12 17 16 16 23 16 7 12 14 13 13 15 18 21 17 26 41 28 29 26 30 33 31 28 29 25 27 27 23 21 20 19 22 16 19
28 30 31 31 30 28 21 10 15 15 19 19 24 29 34 32 26 21 19 18 15 17 18 18 28 36 23 30 30 33 32 30 27 26 24 22 23 21 21 21 19 20 16 16 17
31 35 34 31 27 16 12 12 16 19 17 29 34 27 24 26 25 22 20 21 23 22 21 23 34 25 28 31 30 31 30 26 29 25 26 22 24 23 23 22 22 21 19 20 22
31 36 30 26 13 16 12 20 19 18 9 12 11 14 16 11 13 15 20 20 22 24 22 25 25 29 30 35 31 29 28 28 26 21 18 18 18 21 17 21 19 17 16 18 17
33 31 24 8 12 12 19 22 17 9 6 5 7 4 4 14 3 7 16 14 16 19 21 31 21 28 32 36 29 34 25 25 25 23 21 24 15 18 16 18 19 20 21 21 20
34 21 18 11 7 13 20 17 12 4 5 12 8 12 10 12 21 12 10 8 10 16 19 28 25 28 28 28 31 25 24 27 24 18 17 23 20 17 18 19 22 19 7 10 10
33 13 12 11 11 17 18 10 4 5 16 8 8 8 13 13 14 12 16 15 13 10 18 23 24 30 29 28 29 31 21 15 16 15 21 18 18 17 18 19 20 14 8 7 11
29 10 9 9 13 14 11 3 4 12 13 19 16 17 15 17 19 16 20 17 11 17 13 19 16 26 21 31 25 30 25 16 25 13 19 22 21 21 19 23 17 4 8 5 8
24 10 9 6 11 11 4 4 4 9 14 18 20 16 14 12 19 16 14 14 6 8 10 11 16 23 28 28 28 27 27 26 23 20 14 16 16 25 19 13 14 10 10 12 10
19 15 6 9 7 8 4 10 12 14 14 17 16 0 15 22 10 7 12 9 8 5 11 8 16 21 25 27 32 28 23 24 19 22 18 19 16 4 11 8 4 10 10 15 13
10 4 2 4 4 4 5 14 21 21 18 14 15 15 13 15 17 13 11 7 16 6 9 15 14 25 22 23 28 24 25 25 17 16 14 13 9 3 2 3 7 12 15 17 16
8 4 8 2 3 4 9 21 21 10 14 17 8 11 9 17 20 18 10 11 11 14 11 11 5 14 25 24 29 29 25 24 15 23 18 14 11 11 5 6 5 13 17 16 17
6 7 3 6 4 8 16 17 19 16 19 18 12 16 15 16 10 9 10 9 2 3 3 8 6 9 14 15 19 27 26 23 20 11 19 16 10 10 9 7 5 13 17 15 17
5 6 3 6 4 12 16 16 18 14 14 17 19 15 14 15 18 7 8 5 5 4 2 5 6 16 11 5 12 15 28 29 25 18 15 18 9 9 11 9 7 17 16 17 16
4 7 11 7 10 11 15 16 18 17 14 18 9 18 17 17 17 15 8 14 6 4 3 2 9 19 20 17 21 28 29 32 29 24 20 17 17 13 14 12 4 14 16 17 17
5 5 8 13 13 12 12 15 17 16 19 15 14 20 16 17 18 18 19 17 7 6 5 8 5 15 13 12 20 28 29 30 28 28 25 17 20 10 17 17 8 12 16 16 16
9 9 2 9 13 11 10 16 21 20 10 19 14 17 17 17 18 23 20 18 18 19 14 11 5 5 3 11 19 20 23 24 25 25 24 14 6 18 19 16 9 5 14 13 14

GFSSW_925_spd_015.txt.gz
Wind_Speed
17 17 17 17 18 18 19 18 18 19 20 21 21 21 21 23 26 19 9 20 8 8 14 8 7 15 17 7 10 5 4 5 12 13 16 17 17 14 7 6 4 6 5 8 30
18 18 19 19 19 19 20 19 20 19 19 20 21 21 22 24 27 15 32 32 24 19 15 20 12 17 12 12 8 11 6 11 17 18 15 16 11 19 17 6 6 15 10 27 29
19 19 19 20 21 22 21 20 19 19 19 19 20 22 21 22 8 7 5 11 32 24 27 22 22 15 17 14 11 14 20 15 18 17 19 20 22 16 18 9 8 9 9 16 12
21 21 21 22 22 22 22 22 22 19 19 19 19 20 21 10 6 4 10 11 3 22 24 19 6 4 4 17 16 16 21 21 17 19 23 25 22 21 18 13 9 10 13 5 12
20 21 22 24 25 25 24 23 23 22 22 19 18 16 12 7 10 20 16 7 2 16 17 8 9 4 10 5 13 24 22 19 20 21 24 24 25 24 24 18 13 11 14 11 10
19 21 23 23 24 25 26 27 27 26 24 21 17 13 8 16 16 27 22 17 16 15 19 17 8 12 10 10 17 17 18 22 19 23 23 24 25 21 21 13 16 18 16 15 10
22 23 24 25 25 27 27 29 31 30 27 24 16 12 12 21 22 23 25 27 23 17 10 20 21 14 7 11 18 20 22 20 23 21 20 16 27 31 19 13 17 12 14 14 11
22 23 25 26 27 29 32 35 34 32 27 17 14 9 7 29 25 31 25 26 22 23 23 24 23 10 4 7 12 17 18 21 22 23 23 16 42 15 16 22 22 25 23 19 12
24 25 28 29 30 31 33 36 35 24 17 8 5 8 8 16 13 23 25 16 18 22 23 22 16 9 9 6 7 9 18 22 26 22 16 11 32 15 21 23 22 19 23 23 22
26 29 31 33 32 30 32 32 23 11 7 8 11 7 9 7 11 15 12 14 5 8 8 6 4 11 11 12 17 13 18 22 27 9 12 22 32 28 29 27 26 23 21 18 18
29 31 36 37 32 28 30 18 9 4 4 12 19 14 28 23 36 5 12 13 7 5 6 8 9 22 33 22 16 15 19 22 16 16 17 25 26 26 26 22 18 17 10 8 10
32 34 38 33 29 19 14 4 14 13 15 23 23 27 33 35 23 20 25 15 5 7 8 10 23 22 17 15 19 22 25 24 14 10 14 16 14 19 17 13 9 10 9 9 8
31 35 33 28 20 10 14 21 29 26 9 26 18 23 26 24 23 22 20 16 13 12 12 16 12 16 21 20 22 25 24 18 18 14 22 18 18 19 19 14 11 12 9 10 18
30 33 27 25 5 22 13 25 21 24 4 14 19 6 4 20 22 27 29 18 15 17 15 16 17 20 18 25 19 23 14 20 20 15 14 11 17 19 11 16 19 15 16 15 20
31 31 23 16 13 9 21 26 20 6 4 15 12 16 13 2 9 16 17 12 16 16 11 22 12 11 20 17 18 24 11 19 16 15 16 18 9 7 9 9 10 13 13 13 14
32 29 21 9 10 15 23 22 10 2 3 10 10 9 11 4 12 10 4 9 13 14 13 16 12 18 17 15 18 17 16 19 16 11 12 17 15 20 12 6 13 10 14 15 6
35 25 16 13 6 17 18 9 2 2 6 8 15 18 15 16 15 10 8 10 5 6 10 11 14 17 17 18 18 15 13 7 9 9 16 13 12 17 11 13 18 12 10 3 9
38 15 12 12 10 14 16 3 2 10 16 19 17 13 10 11 14 18 17 7 8 16 10 11 9 9 10 19 10 13 13 8 13 8 17 13 8 9 22 15 11 14 8 12 12
34 13 9 7 3 9 4 2 2 7 18 21 19 7 8 14 3 9 13 12 9 4 2 3 7 11 18 15 14 19 18 18 15 11 8 5 10 22 26 19 11 17 9 13 12
26 9 9 1 5 5 2 4 10 14 16 15 19 5 13 12 11 2 5 13 13 17 14 3 8 10 16 14 14 18 8 6 11 12 12 6 13 9 10 18 10 9 12 14 14
5 3 8 3 3 3 1 4 21 5 19 6 14 12 13 6 9 13 5 6 7 9 11 13 4 13 10 3 11 9 16 11 6 9 9 7 9 12 8 9 10 10 18 16 16
8 3 8 2 1 2 3 15 16 12 16 13 12 6 12 16 8 7 6 7 2 2 1 4 4 6 11 13 17 17 20 15 8 18 5 5 9 11 5 7 7 15 14 15 17
6 4 10 4 1 2 9 13 15 19 11 11 13 15 13 11 7 3 3 4 8 5 0 3 3 5 6 7 12 9 14 17 6 7 20 11 11 4 4 8 17 18 16 16 16
4 4 4 4 5 8 11 10 15 11 11 15 13 6 4 10 13 10 5 6 9 5 3 5 4 5 8 8 9 10 20 13 16 10 13 13 20 13 6 8 15 16 18 17 17
3 4 3 4 8 13 14 15 17 16 13 11 7 11 13 10 16 8 11 8 5 9 5 5 4 10 16 20 11 16 19 20 17 14 17 16 8 9 7 9 16 18 17 18 17
3 3 3 7 11 14 8 7 16 17 13 11 10 17 17 7 10 15 14 9 9 4 9 6 4 9 16 16 2 19 22 20 21 23 14 21 17 4 14 12 13 18 18 18 18
10 7 4 6 8 8 7 17 18 16 8 19 7 12 14 16 17 15 15 12 14 14 9 8 3 4 5 7 3 8 19 17 14 19 19 16 10 7 19 11 10 10 16 18 18

GFSSW_925_spd_021.txt.gz
Wind_Speed
16 17 17 18 19 21 22 21 21 22 22 22 22 22 24 27 30 22 11 18 11 10 22 8 4 5 8 3 4 5 2 5 5 6 3 6 7 16 2 8 4 6 3 7 10
18 18 18 19 20 20 21 22 21 20 21 21 22 23 24 27 28 18 34 28 28 22 10 14 11 8 4 5 4 5 5 10 7 6 2 4 3 14 15 19 10 5 8 8 11
19 19 20 20 20 21 20 20 22 23 22 22 22 23 22 24 6 8 8 17 11 15 27 12 11 6 6 5 6 6 12 8 5 8 6 3 10 4 6 12 18 8 7 12 6
20 21 21 22 23 23 23 22 20 20 21 22 21 19 20 9 7 4 5 11 22 23 17 13 6 6 7 11 7 6 8 13 10 9 8 13 7 15 14 19 13 11 13 7 13
21 22 23 24 25 25 25 25 25 25 21 19 17 14 8 3 11 28 27 32 24 10 14 10 13 6 8 6 5 15 13 8 9 11 10 11 19 23 22 14 13 12 14 14 13
22 24 25 26 28 29 27 26 27 26 25 20 14 8 5 6 16 18 19 21 13 9 5 13 7 7 4 6 13 1 2 13 10 12 8 12 20 19 21 18 16 16 12 13 14
24 25 27 28 29 29 28 26 26 29 25 18 11 7 9 19 18 25 29 27 31 21 5 12 23 5 5 2 7 7 12 12 13 4 6 6 24 29 16 17 20 20 18 15 12
25 27 29 31 29 26 24 23 27 23 17 9 4 5 7 24 24 28 26 27 23 20 20 21 17 4 4 4 4 2 4 13 14 15 7 7 36 14 2 11 19 15 11 11 15
27 28 30 32 28 27 25 22 20 13 8 3 5 3 10 15 10 19 7 14 11 15 16 11 5 6 2 4 3 5 7 9 2 7 9 19 39 16 11 13 19 15 15 16 13
27 28 29 31 27 26 20 21 22 9 9 3 2 2 7 14 30 31 40 14 6 6 4 6 4 4 3 5 16 10 13 1 3 4 11 17 29 18 8 9 12 15 17 17 18
26 28 29 27 22 20 17 9 7 5 10 7 15 13 23 28 30 25 18 17 8 5 7 5 5 15 16 11 8 10 4 1 2 5 8 17 22 19 11 16 21 23 21 20 11
28 27 28 24 22 12 11 2 5 8 8 12 14 11 20 17 10 17 4 3 6 4 1 2 17 5 2 3 8 8 9 11 6 11 6 13 13 15 14 16 16 18 18 15 14
28 27 27 23 16 6 14 7 18 15 2 8 7 7 6 3 4 15 3 2 3 8 6 6 4 3 12 6 6 6 7 5 7 11 19 16 21 17 20 15 18 18 12 10 14
28 27 23 23 4 16 10 16 23 7 2 5 8 5 5 7 3 14 6 5 3 7 6 6 7 6 4 6 11 17 5 7 4 4 8 2 18 25 18 23 16 16 9 12 15
30 27 20 12 11 7 16 22 25 2 3 14 6 12 17 5 11 6 12 5 13 10 2 7 2 5 12 10 7 6 11 8 13 11 4 7 5 15 7 13 22 20 17 18 14
31 24 19 3 7 14 20 29 1 5 4 8 10 17 16 6 4 6 6 9 7 13 9 7 7 4 6 7 8 5 3 10 9 3 7 12 10 25 10 12 10 10 10 11 10
32 20 9 6 4 16 22 6 4 4 6 8 10 16 15 11 7 8 8 5 3 5 3 4 14 20 11 6 4 4 5 1 2 4 11 7 14 21 4 5 6 7 11 10 9
32 8 3 9 9 13 10 5 6 2 6 12 12 16 4 13 6 8 6 6 8 1 2 1 5 8 3 7 6 7 8 4 6 5 5 10 11 8 9 13 16 15 16 8 8
20 8 1 2 4 6 5 5 5 3 6 9 14 5 5 8 5 8 6 2 3 0 3 2 4 4 2 2 4 1 4 7 4 5 1 5 7 9 13 20 14 13 7 9 8
11 10 4 2 1 6 5 3 3 4 11 7 2 3 5 8 6 7 4 2 3 1 1 1 3 3 3 2 5 5 3 3 1 4 5 5 6 10 5 8 6 7 11 8 7
5 3 6 5 1 5 3 4 7 9 10 4 6 8 8 5 4 4 3 4 0 3 2 2 2 3 3 4 6 2 2 3 4 5 3 3 6 6 9 8 11 16 9 10 11
7 2 10 2 4 1 0 3 8 7 11 7 4 5 5 3 4 4 3 4 4 3 2 2 2 3 9 5 3 0 4 4 3 6 5 3 8 8 3 7 10 16 7 9 10
4 3 4 2 2 3 5 5 4 7 13 5 5 2 2 4 3 5 5 4 4 4 2 1 1 3 8 3 2 3 3 3 1 2 7 5 8 1 3 9 11 6 4 13 13
3 4 4 4 0 2 4 4 5 9 11 10 7 3 2 5 7 6 7 5 1 4 4 4 3 6 5 5 4 5 5 2 2 3 6 16 15 20 15 18 19 4 5 12 12
3 1 1 4 3 9 3 4 8 10 3 5 4 4 13 6 10 6 5 4 3 8 3 5 5 6 9 13 14 14 16 13 11 9 6 5 21 18 14 19 17 5 9 9 14
2 3 3 7 7 4 3 3 9 11 6 6 6 18 13 11 13 19 17 6 8 2 6 6 4 4 12 12 16 19 19 17 15 15 10 13 26 12 9 10 0 5 11 10 14
4 4 2 5 3 4 3 7 14 12 8 10 15 17 15 16 12 16 16 19 12 6 8 7 4 5 6 9 11 10 18 19 14 6 11 14 11 7 11 8 3 4 6 9 12

GFSSW_925_spd_024.txt.gz
Wind_Speed
19 19 20 20 21 21 20 20 20 19 18 18 18 19 21 24 27 24 8 14 14 18 19 16 6 5 3 3 4 4 2 5 6 7 5 2 4 4 4 5 2 2 7 5 9
19 19 19 20 22 23 22 22 21 21 21 20 19 20 22 24 25 15 12 8 11 15 15 9 7 7 3 5 4 5 5 10 6 7 4 3 2 8 6 7 3 3 5 8 6
20 21 22 22 22 22 23 24 24 23 22 21 20 20 21 21 6 5 9 12 18 17 12 13 9 7 7 5 7 7 10 8 6 6 3 5 8 3 10 6 6 10 7 5 4
22 22 23 24 24 24 24 23 22 23 23 21 20 18 18 9 5 5 8 20 19 11 4 5 6 4 8 12 6 6 12 13 6 5 3 6 5 8 11 10 10 14 11 6 11
24 24 25 26 26 27 26 25 24 23 21 19 16 12 7 4 10 19 17 21 17 14 3 5 9 7 6 5 4 13 6 8 10 6 6 6 16 14 21 11 12 14 15 12 11
26 26 27 28 30 29 26 23 23 26 22 16 10 3 1 5 7 20 27 29 26 16 9 4 5 5 6 6 16 2 5 11 6 7 4 8 17 7 11 8 14 15 17 15 12
25 26 27 28 29 27 25 21 23 25 20 10 2 2 6 15 17 25 25 22 26 18 5 10 8 6 2 4 7 3 5 3 6 4 8 7 22 31 16 12 17 20 20 17 16
24 26 26 28 28 25 23 21 20 21 14 10 5 4 7 18 16 20 13 15 18 21 20 22 15 4 7 5 4 5 5 12 14 11 6 9 31 16 9 16 22 22 14 13 13
24 26 26 28 27 26 24 22 19 20 8 9 4 3 11 16 9 19 14 9 22 16 9 13 6 7 4 5 4 4 14 6 4 9 7 18 33 2 5 8 11 10 13 13 17
26 26 26 28 25 24 21 22 20 8 7 4 1 1 8 10 17 18 16 14 2 6 3 5 5 4 3 7 16 6 3 2 4 7 15 15 28 11 13 16 16 13 14 13 13
25 25 24 24 21 19 18 10 8 5 5 5 11 7 20 15 26 8 16 3 3 1 3 4 4 13 14 9 3 4 3 3 3 1 4 14 19 14 9 11 14 18 19 21 20
24 25 26 22 20 8 10 3 4 5 9 11 14 10 22 13 6 6 4 3 5 4 4 5 14 5 1 7 9 7 0 3 5 8 4 4 11 14 13 16 17 18 16 14 9
26 26 25 19 11 2 9 2 6 12 2 8 6 5 9 2 5 6 4 5 1 2 5 6 7 6 5 3 4 4 4 3 6 7 13 10 18 14 15 14 16 16 16 16 16
28 25 22 17 1 9 4 4 18 1 3 5 5 3 8 7 4 2 4 4 1 6 4 5 7 4 4 6 9 7 4 2 2 1 5 3 13 19 18 20 17 15 16 17 11
30 26 19 9 8 4 6 14 12 4 4 12 5 4 17 4 11 1 8 0 7 13 3 7 2 4 5 6 6 7 9 9 8 7 4 5 5 17 5 8 11 16 19 16 16
33 26 15 3 5 9 12 17 3 5 4 7 7 15 12 6 10 4 4 3 5 6 6 11 3 3 5 5 9 5 5 4 2 3 4 8 9 24 7 13 15 9 11 12 11
32 14 6 5 3 12 17 3 4 4 4 7 9 16 14 6 8 5 11 5 2 3 4 4 14 10 6 5 4 5 5 2 1 2 8 10 11 23 7 9 6 8 9 9 8
22 6 1 5 9 14 6 5 5 2 5 6 10 15 4 8 6 6 9 3 4 3 2 3 2 5 3 8 7 6 7 4 6 5 5 6 11 7 12 13 8 7 10 9 10
16 5 2 5 6 9 5 5 5 4 4 7 12 3 4 6 3 6 3 3 3 4 3 3 4 4 2 2 5 3 4 7 3 3 1 5 6 7 15 13 11 9 9 12 11
10 7 5 5 5 6 5 2 3 4 5 6 3 4 5 10 6 5 4 3 3 1 3 4 4 2 3 3 9 4 3 2 1 4 5 5 5 6 9 4 8 10 10 12 3
5 3 8 3 5 5 3 4 5 5 5 3 6 8 9 7 4 4 6 7 2 2 0 1 1 5 4 4 6 3 3 2 3 5 3 3 5 6 8 4 6 14 19 11 8
6 2 10 3 4 1 1 4 5 7 2 5 4 5 5 3 5 4 6 3 2 1 5 2 1 3 7 6 4 3 3 5 4 6 4 4 6 7 3 8 12 15 10 5 9
3 3 4 3 2 3 5 5 4 4 7 3 4 4 1 3 5 5 5 6 1 4 4 1 1 3 4 2 3 0 4 4 2 2 6 4 7 4 8 16 16 14 7 2 7
3 4 4 4 1 3 5 5 4 5 6 3 5 4 3 7 8 6 6 6 1 5 8 2 2 5 4 2 1 3 7 8 3 5 5 11 12 23 16 14 20 20 5 5 7
3 1 1 4 3 5 4 5 9 6 3 1 4 4 8 7 13 14 11 7 8 6 0 4 6 5 8 8 9 10 14 13 15 10 7 3 8 16 10 15 15 10 1 6 10
2 3 3 4 5 4 4 4 7 6 5 11 7 15 14 13 14 21 18 14 11 4 5 6 4 2 8 10 11 13 15 17 18 18 15 12 21 13 11 8 10 7 4 6 10
3 2 2 4 4 2 4 4 9 15 8 9 14 17 15 16 12 19 20 22 15 7 7 5 4 3 4 4 5 9 15 18 16 13 12 13 12 11 8 13 8 6 7 7 8

GFSSW_925_spd_027.txt.gz
Wind_Speed
17 17 18 18 19 19 19 19 19 19 19 19 19 21 22 24 27 17 6 5 8 17 20 13 6 4 4 5 5 4 6 11 16 11 5 1 2 1 6 5 3 4 4 5 7
18 17 18 19 20 20 20 20 20 20 19 18 19 19 21 22 19 12 3 8 9 14 7 4 5 9 5 7 7 10 10 16 8 12 6 5 5 3 4 5 4 6 5 6 3
18 18 18 19 19 20 20 19 19 18 18 17 17 17 19 18 5 2 9 18 17 12 7 3 3 6 14 7 12 10 19 18 16 13 11 15 14 5 7 12 11 8 13 8 7
17 17 18 19 20 21 21 19 18 18 18 15 13 14 16 7 5 3 5 19 20 15 3 2 6 6 10 19 15 14 19 20 15 6 7 12 12 17 15 17 13 15 16 15 14
19 20 21 22 23 22 20 17 18 20 18 13 9 7 5 3 7 4 18 21 14 10 7 4 10 11 16 10 17 22 22 14 21 13 14 7 21 21 22 17 19 20 19 18 18
21 22 22 22 23 21 20 15 17 18 15 9 4 2 2 6 7 12 20 13 11 8 4 4 5 9 9 15 18 11 19 22 16 17 19 18 26 21 22 14 16 17 19 19 18
22 22 22 23 23 21 21 17 18 14 13 8 4 4 2 7 11 18 14 12 8 4 3 7 9 9 3 10 11 15 17 12 15 23 19 11 23 36 22 20 25 23 22 23 22
23 23 23 23 23 20 19 18 17 16 9 6 6 2 6 10 16 19 14 14 8 6 3 7 6 6 7 9 7 11 13 22 24 13 9 17 32 32 24 23 27 25 23 22 24
23 23 23 22 21 19 17 18 14 12 5 5 2 2 7 14 9 16 10 10 15 5 3 3 5 6 6 13 8 13 21 26 22 21 19 18 34 22 11 10 20 19 17 16 17
24 24 24 23 19 18 16 17 9 4 4 2 1 3 4 13 15 23 11 13 7 7 4 3 5 10 13 14 19 17 19 19 18 15 22 28 34 24 18 18 20 19 20 21 22
25 26 26 23 18 12 18 5 5 1 5 4 8 6 15 14 21 8 11 5 4 4 1 2 9 18 18 19 21 11 11 17 16 7 20 26 28 25 22 21 23 21 20 22 22
25 27 26 21 16 5 9 5 6 1 8 8 14 11 18 9 7 10 4 2 4 11 3 4 15 13 13 13 18 18 16 9 8 9 7 13 18 15 16 20 21 20 22 22 23
28 26 24 20 5 3 3 6 5 5 3 8 6 5 6 10 6 12 1 2 6 7 7 9 12 6 15 17 14 18 22 20 11 9 15 14 24 24 22 22 23 23 23 23 23
29 26 22 14 2 5 1 4 8 7 3 4 3 0 8 14 4 12 3 2 3 8 7 10 13 13 11 14 15 17 8 11 16 13 13 3 11 16 16 21 21 21 20 22 23
31 26 18 6 5 2 0 7 4 5 4 9 3 3 14 4 11 1 10 3 10 15 10 14 8 8 11 12 11 16 16 12 9 10 11 17 10 15 10 17 14 15 20 22 21
34 22 10 1 4 2 9 8 4 2 4 4 7 11 17 8 15 7 12 4 4 9 13 19 16 8 6 5 8 10 13 17 14 11 14 17 11 22 16 18 17 18 19 17 16
30 10 2 3 2 8 11 2 2 3 4 4 8 12 16 7 13 12 17 7 2 6 3 7 16 18 15 13 12 8 8 7 11 12 17 8 13 23 4 8 14 8 13 17 17
22 4 2 2 9 10 2 1 4 0 4 6 7 16 4 9 12 12 12 7 4 3 5 5 6 7 12 17 15 11 16 7 13 12 15 12 13 8 11 8 13 11 14 15 16
15 3 2 8 5 9 1 1 2 3 3 7 14 3 3 5 9 8 13 7 2 2 5 5 3 9 4 10 8 11 8 18 5 4 7 11 15 14 19 13 8 10 14 17 17
10 4 4 6 7 4 2 2 3 3 7 6 5 3 7 13 10 8 7 4 7 1 2 3 7 3 8 5 8 2 1 9 8 6 8 8 16 8 9 6 9 15 19 19 16
5 0 8 5 4 3 1 3 5 7 6 3 7 9 11 12 6 8 6 12 4 5 4 4 3 3 5 7 10 4 8 6 6 11 3 2 3 1 8 9 14 17 21 20 11
7 1 9 6 1 1 2 6 6 7 1 6 7 11 10 7 8 7 8 6 9 6 9 2 2 6 10 6 5 5 5 10 9 18 10 8 5 4 12 11 16 21 22 17 7
5 3 6 5 2 3 4 6 5 5 5 3 4 4 5 6 6 8 9 5 11 6 4 2 1 5 6 3 3 3 4 6 5 4 14 12 6 10 8 20 20 22 21 15 5
3 3 2 3 1 2 5 5 5 6 10 4 9 10 4 7 10 7 11 8 7 9 10 2 5 10 9 6 6 11 11 11 6 9 14 17 23 26 19 20 22 21 18 14 3
3 2 1 4 2 8 3 5 9 5 3 7 4 6 6 7 18 19 14 13 12 7 8 2 9 12 13 15 14 15 19 18 16 14 10 13 24 22 16 17 20 17 18 13 1
2 3 2 4 7 6 4 3 7 6 6 10 6 13 15 15 18 25 22 16 14 7 11 6 5 11 14 15 16 21 20 20 20 18 17 18 30 20 21 18 18 18 17 11 4
1 0 1 4 3 3 3 3 9 16 10 10 14 17 18 20 17 20 21 21 18 7 9 6 4 6 11 11 12 15 23 24 20 17 17 20 26 21 19 17 18 16 14 15 7

GFSSW_925_spd_030.txt.gz
Wind_Speed
12 13 13 14 14 14 14 14 14 13 14 15 16 18 19 20 22 12 9 4 6 12 12 12 11 9 12 16 17 14 12 16 22 19 15 6 15 11 7 6 8 3 3 10 6
14 15 15 16 16 16 15 14 13 13 13 15 16 17 18 19 18 2 6 6 12 14 7 8 13 13 14 17 12 15 16 26 20 14 11 15 14 10 9 16 14 9 4 5 5
16 16 17 17 17 17 16 15 12 14 15 16 16 16 16 16 6 5 2 14 17 11 8 8 9 14 19 16 23 22 26 22 22 17 15 18 18 13 13 17 17 14 14 2 4
18 18 19 19 19 18 16 13 12 15 18 17 14 11 13 7 1 4 6 14 11 6 6 4 7 17 19 26 21 25 26 27 24 16 16 21 21 24 21 20 17 9 10 13 13
19 19 19 19 19 16 14 12 12 15 15 13 12 11 7 4 5 3 12 12 7 4 6 7 10 13 24 19 25 28 30 23 23 22 18 18 25 24 26 22 20 20 17 19 19
19 19 20 20 19 15 13 10 12 14 13 12 9 7 6 3 6 7 11 13 7 7 4 8 9 9 15 22 24 18 27 30 27 20 22 23 28 22 29 24 23 20 22 21 21
21 21 21 21 21 16 14 12 14 10 12 6 5 2 4 7 8 12 12 10 9 8 8 6 12 11 5 15 20 24 26 24 23 29 26 19 30 36 28 25 23 23 24 23 23
23 23 23 22 21 16 14 13 14 10 2 2 0 3 3 3 9 11 12 13 6 8 10 9 8 14 17 15 15 16 22 24 33 24 25 23 29 37 27 27 27 28 27 25 27
23 23 23 23 20 16 13 16 10 2 2 3 2 5 2 7 12 10 12 12 14 12 7 9 7 15 14 17 16 20 24 31 30 28 24 22 37 37 30 23 27 23 25 24 23
22 23 23 23 18 15 14 8 3 3 1 4 4 4 3 10 17 18 10 11 10 7 7 9 8 12 14 16 23 27 26 27 28 23 27 30 35 30 22 18 27 26 22 21 18
25 25 24 22 16 9 13 4 4 6 4 6 5 5 10 15 15 7 9 10 5 8 12 8 11 14 18 22 28 24 28 24 21 22 24 28 33 31 28 28 28 24 23 24 24
28 26 24 20 10 6 7 4 5 5 8 9 10 11 12 7 11 9 5 6 10 11 9 10 16 15 16 19 23 25 27 28 19 16 21 25 30 28 27 25 27 27 26 26 25
30 27 24 14 2 4 3 5 2 10 6 3 3 7 5 10 9 9 5 10 11 13 11 16 17 13 12 16 20 23 26 25 25 15 21 20 24 25 21 23 23 25 25 26 26
32 28 21 5 1 2 1 0 7 6 5 6 3 2 6 11 9 14 5 7 9 11 12 14 13 16 16 19 18 24 23 22 25 23 20 20 19 23 24 28 30 28 26 27 26
34 25 15 2 3 1 2 6 6 4 5 3 2 3 9 6 9 3 7 7 14 16 13 20 19 13 17 18 19 18 21 19 20 22 24 30 17 19 19 22 23 21 24 24 25
35 17 5 3 2 1 6 4 5 6 2 2 2 8 9 6 10 5 9 10 11 13 15 19 14 16 17 13 11 15 13 19 19 15 18 23 18 19 18 24 18 18 19 20 19
33 8 3 2 4 4 5 4 5 5 2 1 7 10 15 8 11 9 13 11 6 8 10 15 13 16 20 20 15 13 16 12 17 18 18 20 17 19 9 9 1 10 10 9 12
26 2 1 1 5 5 5 6 5 4 5 8 8 17 9 10 9 13 11 12 2 10 13 8 10 8 7 23 19 22 19 16 18 16 20 25 15 15 12 17 7 7 9 10 11
13 1 2 2 3 6 7 5 3 4 5 9 15 8 8 5 11 9 11 9 5 6 8 11 7 11 12 11 18 23 14 24 24 21 16 19 24 25 10 10 5 1 7 12 12
9 3 2 6 5 8 4 4 3 3 8 8 9 6 13 16 13 8 9 4 6 6 4 9 14 10 4 11 10 21 1 7 15 16 18 15 23 12 21 23 4 7 13 15 13
6 4 4 5 4 4 3 5 8 6 8 6 10 16 14 12 12 10 6 12 5 7 13 14 9 10 13 6 15 4 7 13 14 17 9 13 15 20 14 11 6 11 15 15 11
7 3 5 6 5 1 4 8 7 6 5 8 9 11 11 13 11 15 13 8 12 12 14 16 6 12 14 6 11 9 17 4 5 16 13 10 4 11 18 10 11 15 17 16 10
7 3 2 7 3 6 8 9 7 9 5 4 8 8 14 16 8 8 12 11 10 14 6 5 7 9 11 7 10 11 15 14 21 4 17 11 5 14 9 8 13 17 18 17 9
4 3 2 2 2 6 10 5 5 3 11 6 10 13 12 13 13 10 18 12 13 14 17 10 14 15 14 17 9 8 10 13 11 10 14 16 16 13 10 11 14 16 18 17 9
2 2 3 4 4 9 9 7 9 7 4 9 7 10 11 10 18 23 20 15 17 19 17 5 11 16 18 21 18 18 17 16 17 18 18 19 21 20 17 15 16 17 18 16 9
4 3 4 11 7 8 1 5 9 6 12 14 13 14 15 18 21 26 26 21 9 7 17 6 6 14 19 19 20 21 20 19 20 20 18 23 27 22 20 19 20 18 15 14 11
0 1 2 6 6 6 5 8 14 16 10 9 11 15 20 22 20 24 24 24 18 9 7 8 5 10 15 15 14 16 20 21 22 21 21 22 25 21 20 19 18 16 16 13 11

GFSSW_925_spd_033.txt.gz
Wind_Speed
15 15 15 16 17 18 17 16 14 13 15 16 17 17 17 20 21 18 11 6 7 10 11 15 17 16 16 20 24 20 17 19 24 23 19 12 19 16 17 19 7 11 4 9 17
15 15 16 17 17 17 17 16 13 13 15 18 18 17 15 18 18 9 4 5 11 12 11 12 15 17 16 17 20 22 17 28 23 22 17 13 15 18 22 14 15 16 9 5 8
16 16 17 17 17 17 16 14 12 14 16 17 16 16 18 14 11 12 5 11 15 12 13 12 15 19 23 21 23 27 28 26 25 24 21 14 20 21 23 18 21 18 13 8 4
18 17 17 18 18 17 15 13 13 15 16 16 17 17 15 9 2 7 10 8 13 9 12 14 13 18 23 27 26 27 33 30 30 28 17 18 20 25 23 20 21 21 19 20 11
19 19 19 19 19 18 14 12 13 15 17 15 16 15 10 8 6 4 9 10 12 9 10 12 15 17 24 24 25 32 31 30 28 22 26 20 23 25 27 23 21 22 13 9 12
20 21 21 20 20 17 13 12 13 17 15 15 12 11 8 11 4 6 10 11 10 11 11 10 12 15 21 23 28 26 30 33 29 27 26 28 27 22 29 26 25 24 23 20 19
20 21 20 21 20 17 13 12 14 18 14 11 8 7 11 6 5 8 9 10 9 11 10 11 10 15 11 17 24 25 28 28 28 29 33 25 28 30 32 27 28 28 25 22 23
22 23 22 22 21 16 14 13 17 16 10 7 7 7 7 2 7 9 12 11 10 8 12 13 14 16 20 20 27 19 21 26 35 28 28 27 34 34 29 29 31 29 27 23 26
24 25 25 23 19 15 12 15 11 7 5 5 5 8 5 4 5 13 11 11 14 15 13 10 15 16 15 18 19 21 26 30 32 29 29 28 35 34 33 30 27 29 28 26 27
26 26 25 23 18 15 13 11 7 4 3 7 12 8 6 6 14 13 11 12 12 11 12 13 13 13 14 15 21 24 26 29 30 27 29 31 34 33 30 30 26 32 31 26 29
27 26 25 23 15 8 16 7 5 8 15 12 11 9 8 13 12 8 6 11 9 11 12 12 14 14 17 16 22 24 28 32 29 25 28 29 31 36 30 27 27 26 23 30 30
30 28 26 19 8 5 10 7 6 7 10 12 12 10 11 8 10 9 7 12 12 14 15 13 16 17 18 15 20 24 26 30 29 30 23 22 27 34 27 29 29 28 28 28 25
32 32 24 10 2 5 6 6 7 10 7 3 5 7 5 6 12 12 10 11 14 17 14 16 17 21 17 17 19 20 23 25 27 24 28 25 29 30 26 27 25 28 29 28 27
34 32 19 1 4 5 2 6 9 7 6 10 9 3 6 7 17 7 12 10 13 17 19 16 15 16 16 21 17 21 20 21 26 21 21 28 21 27 26 25 27 27 23 24 24
35 27 14 7 9 4 7 10 10 5 5 5 4 5 7 10 8 11 4 12 18 18 17 19 20 20 22 21 17 22 19 21 23 25 24 30 20 22 22 27 27 27 29 29 28
35 18 2 1 5 4 7 8 5 7 1 4 2 5 11 12 6 8 9 13 18 17 18 20 14 21 19 20 18 15 17 20 21 20 22 26 26 24 22 23 21 20 21 23 23
33 10 5 4 6 7 8 8 6 6 4 1 6 11 15 14 10 6 11 14 13 10 15 20 16 8 16 16 18 16 14 12 16 16 19 23 25 21 24 29 25 22 24 11 15
25 4 4 6 6 7 9 9 8 7 10 10 10 16 16 3 8 10 14 13 11 8 13 9 12 4 12 9 20 17 17 13 17 16 19 26 26 21 24 24 16 19 15 14 11
19 4 8 4 5 8 9 7 5 8 8 10 14 13 8 8 10 15 11 12 6 11 12 13 9 20 18 9 7 18 17 21 21 25 18 20 29 31 30 19 14 16 10 7 11
16 9 6 1 6 10 8 9 9 2 10 11 14 9 14 17 13 12 10 7 7 11 11 10 18 18 15 10 17 16 15 13 6 19 23 18 22 19 30 19 15 10 3 9 7
9 5 6 1 6 8 6 10 10 7 10 7 11 16 17 15 15 17 10 14 9 9 14 16 17 19 17 15 16 1 6 8 8 12 12 16 12 15 27 29 19 5 2 4 7
8 4 4 5 6 4 7 6 6 8 8 8 10 15 14 15 17 19 20 14 8 13 15 18 14 16 22 23 13 13 13 19 4 12 18 11 17 16 13 21 13 4 4 6 5
6 5 2 3 3 7 11 13 10 8 11 7 8 15 14 16 13 13 18 17 14 13 7 11 6 10 17 16 15 7 9 13 8 9 15 8 9 18 23 17 11 9 12 12 8
5 4 3 0 3 7 12 11 9 6 10 8 9 15 15 16 15 14 21 19 11 13 19 12 14 18 17 20 8 5 19 13 11 6 14 18 17 20 4 15 12 8 14 12 11
2 4 4 4 7 10 11 14 11 10 4 6 10 11 12 14 20 23 20 23 16 18 17 4 11 19 24 28 23 17 20 13 17 20 21 20 13 14 25 29 9 9 12 11 12
5 5 9 11 9 6 10 11 11 9 16 17 15 16 14 16 19 28 27 24 15 5 6 10 8 15 21 23 25 23 22 18 19 25 24 23 20 14 21 20 14 11 11 12 8
5 4 4 8 6 7 5 11 14 17 13 12 14 17 20 20 20 24 24 26 21 12 6 3 6 8 19 20 22 19 22 19 20 23 22 22 20 16 17 18 15 13 11 12 6

GFSSW_925_spd_036.txt.gz
Wind_Speed
18 18 18 19 20 19 19 18 17 16 16 18 19 18 19 21 26 20 16 2 5 11 13 16 15 16 18 17 22 21 15 18 24 22 20 18 19 15 16 16 20 14 5 10 16
18 19 19 19 20 20 19 18 16 15 16 18 19 20 20 24 21 18 3 5 9 11 10 15 13 16 15 15 14 19 18 29 24 19 20 20 19 20 17 19 18 11 7 6 12
18 18 19 19 19 19 18 17 16 16 17 19 20 22 22 19 11 6 5 9 10 9 12 16 18 15 20 20 21 22 27 26 27 25 21 20 23 17 15 19 21 18 14 8 18
19 19 19 19 20 19 18 17 17 17 18 20 20 22 22 10 3 9 7 7 10 10 11 13 13 17 19 22 22 26 30 28 29 28 26 26 23 25 20 22 24 18 16 17 12
19 19 20 19 20 19 18 16 17 18 19 20 19 17 12 8 1 4 8 9 12 11 13 11 13 15 21 20 22 30 29 29 27 25 25 27 29 28 19 22 23 22 17 16 15
20 20 21 21 21 19 18 16 18 19 20 19 17 15 9 13 5 4 7 9 9 11 13 13 12 14 20 21 22 24 29 29 28 26 22 27 28 24 25 21 23 23 20 8 8
22 23 24 23 21 19 17 17 17 19 22 17 12 8 11 12 4 7 9 11 11 7 8 13 15 11 14 17 23 22 27 25 28 27 28 24 26 32 24 22 23 23 23 20 16
24 28 25 24 23 19 17 16 17 20 16 11 11 7 7 3 5 6 12 13 9 12 13 10 12 14 15 16 24 22 20 21 29 27 29 20 30 28 27 22 24 24 22 22 20
28 30 27 27 22 17 17 15 16 13 11 9 7 9 11 5 6 12 12 11 13 14 12 11 8 13 14 14 15 17 21 24 25 25 27 26 31 27 25 23 20 21 21 22 21
29 31 30 28 20 15 16 17 17 14 8 8 14 9 11 4 11 12 10 9 13 11 12 11 12 13 13 13 17 18 21 23 27 26 25 26 29 28 25 23 25 23 22 22 22
28 31 31 26 16 11 19 9 4 6 12 14 13 13 12 6 10 7 6 9 13 9 14 12 11 14 17 17 20 19 22 27 28 27 24 24 25 28 26 25 25 21 19 24 24
30 33 31 22 11 9 13 7 8 10 11 15 14 12 11 10 8 11 5 11 12 13 16 13 15 16 16 18 20 20 20 25 25 26 23 27 28 27 22 24 22 22 23 21 23
33 34 28 17 10 11 10 7 9 11 7 9 4 6 7 5 11 12 6 11 13 15 15 16 18 19 18 20 18 18 21 21 24 22 24 25 26 28 27 20 17 20 19 23 22
34 33 24 12 8 8 2 9 11 9 5 7 8 3 5 5 7 2 13 6 12 17 18 15 18 20 20 22 21 21 21 21 21 19 17 20 18 22 21 23 21 22 20 14 13
35 32 16 5 13 11 11 11 11 6 4 5 7 6 5 9 12 6 2 7 13 16 16 18 19 19 22 22 21 23 21 20 22 20 22 23 15 19 22 22 22 22 21 17 16
37 31 13 8 9 7 11 11 7 5 2 4 1 6 10 11 16 5 11 12 17 18 18 19 19 19 19 21 20 28 20 22 18 17 17 24 19 21 19 23 24 18 21 23 24
41 26 11 11 8 11 12 10 5 6 5 2 6 11 13 19 7 9 8 13 12 12 14 18 15 10 6 11 19 27 16 12 15 14 17 22 21 19 21 24 24 22 18 20 16
40 15 5 10 10 9 13 8 6 6 8 14 11 17 18 14 6 8 13 13 12 10 13 14 17 9 13 19 10 26 9 9 19 16 17 20 15 17 19 22 25 23 24 16 14
33 9 5 11 3 7 7 5 4 10 12 11 14 15 12 10 11 12 14 13 8 7 12 15 20 8 16 20 14 19 11 20 12 19 14 19 27 21 22 23 25 24 23 13 13
24 11 7 7 1 6 6 9 14 8 11 12 14 10 15 17 16 15 15 10 13 15 15 15 19 19 22 20 18 15 9 12 5 12 17 17 22 12 20 19 24 24 19 18 6
7 4 5 1 4 5 5 12 12 15 11 6 13 16 15 15 16 18 15 20 10 18 17 19 15 20 19 18 16 12 3 3 11 6 5 8 13 12 17 22 21 22 15 7 11
8 3 4 4 5 3 7 11 9 9 7 13 8 10 10 16 16 18 19 16 13 11 13 14 8 17 22 25 25 17 14 11 6 10 9 12 21 15 23 28 29 23 7 6 8
7 6 7 4 2 6 11 16 12 7 9 8 8 12 12 15 13 9 18 19 13 10 9 8 6 12 15 18 7 8 6 5 10 13 14 10 11 17 26 31 33 31 12 8 15
5 3 2 3 6 9 12 13 13 7 8 5 8 10 13 16 13 16 21 19 6 7 9 7 11 18 17 21 3 9 15 24 17 7 18 13 15 10 17 18 26 25 22 12 8
4 4 5 5 9 12 9 14 13 15 11 3 11 16 14 16 19 19 16 24 20 6 6 3 8 17 25 26 24 25 19 23 26 22 19 14 17 5 5 13 24 31 29 15 7
5 5 8 12 10 11 5 10 12 13 14 15 16 16 17 18 18 24 22 20 20 15 8 6 5 12 22 23 22 24 26 29 30 30 18 17 15 9 14 17 24 23 18 13 8
7 6 3 9 9 10 9 10 12 16 10 13 17 19 18 18 23 22 22 22 20 5 3 2 3 3 12 17 14 16 24 26 26 21 19 15 11 9 8 17 19 10 12 10 13

GFSSW_925_spd_042.txt.gz
Wind_Speed
19 19 19 19 18 18 18 18 17 16 15 16 17 20 22 24 26 19 5 6 4 5 9 12 10 11 8 4 4 1 2 8 9 11 13 12 7 9 10 7 10 13 3 3 19
20 20 20 20 20 19 19 18 18 17 17 17 18 21 22 23 20 8 6 4 6 6 4 3 3 6 2 5 3 5 5 8 6 9 13 18 19 18 13 16 7 18 14 23 22
21 21 21 21 21 20 20 19 19 18 17 17 18 21 21 17 4 4 6 5 5 3 3 4 6 3 3 4 5 5 14 10 8 7 9 16 23 15 12 15 11 8 17 7 2
23 22 23 23 23 22 21 20 19 18 17 17 18 21 18 1 1 5 3 4 4 4 5 3 1 1 1 4 4 6 7 8 10 14 15 21 21 24 17 19 16 5 9 6 6
25 25 25 26 24 24 23 22 20 18 17 16 18 16 6 2 7 8 3 3 6 6 6 4 3 2 3 4 5 6 9 8 10 12 17 17 23 24 23 19 16 13 7 7 11
26 27 27 27 27 26 24 21 20 18 16 15 14 7 1 3 1 4 3 7 11 8 6 5 0 3 2 2 2 5 6 8 7 9 6 13 21 19 31 16 17 20 4 5 5
27 28 28 28 29 26 25 22 18 16 13 12 9 2 3 11 4 2 6 5 6 5 1 4 2 4 3 9 4 7 8 10 6 4 4 5 15 20 21 11 15 20 14 7 8
28 29 31 31 30 28 26 21 17 15 12 8 3 1 6 7 7 4 2 6 6 8 8 12 8 3 3 2 8 6 4 3 4 7 5 8 24 21 14 9 16 14 20 8 9
30 32 32 32 31 27 26 18 19 15 9 4 1 3 8 11 3 4 3 4 8 10 13 12 6 5 1 2 5 3 5 7 7 7 6 6 16 11 7 10 17 17 15 18 8
32 34 34 35 30 26 21 19 8 5 5 3 3 2 7 2 7 2 2 3 5 5 6 1 4 3 3 4 3 6 5 6 4 5 2 10 15 7 7 8 10 14 16 17 17
36 35 35 35 28 22 19 4 6 4 2 6 6 5 10 11 1 4 8 2 3 5 3 3 4 5 11 9 11 9 12 14 10 7 2 9 14 12 6 7 9 10 13 15 17
37 36 36 33 25 15 9 2 2 5 7 9 13 14 24 20 4 5 10 2 2 3 6 7 4 4 6 6 5 6 6 6 4 6 8 7 17 15 7 7 9 11 11 13 13
35 35 34 31 16 5 6 9 9 9 3 8 5 5 7 8 7 9 6 4 4 2 4 2 9 9 10 7 9 7 6 12 15 12 4 5 15 16 10 5 7 10 10 10 11
36 35 29 28 3 12 4 18 6 4 3 5 5 4 5 4 4 9 12 7 2 7 3 6 7 5 7 3 4 5 9 11 13 8 4 3 15 15 11 12 6 11 10 10 13
39 32 27 10 8 4 13 16 12 3 3 6 4 6 3 4 1 4 15 4 8 7 6 10 7 9 4 1 2 6 7 7 7 10 4 12 5 15 5 13 17 14 11 10 10
39 27 18 0 3 8 18 16 2 2 3 2 3 4 2 4 7 5 5 2 3 5 4 10 5 2 5 4 2 4 4 8 5 3 10 12 6 17 8 8 13 11 10 14 12
34 16 6 3 3 12 17 3 3 4 14 5 7 6 7 5 6 7 3 1 4 3 4 4 3 2 3 1 4 4 5 5 4 1 10 7 8 19 5 10 5 5 10 13 15
25 9 6 3 5 12 9 4 5 6 11 9 8 9 2 11 5 10 7 6 5 6 1 1 6 2 2 5 6 5 5 4 5 2 7 9 6 8 1 4 4 4 7 8 14
15 6 4 4 5 7 5 4 4 5 6 6 7 3 5 8 5 8 6 1 4 5 2 4 3 8 7 5 2 4 5 8 6 11 6 4 7 8 5 4 7 10 10 12 10
10 7 4 5 1 6 5 2 4 9 8 5 2 4 7 8 3 5 4 3 4 3 3 3 7 8 6 6 9 8 3 2 1 3 5 5 7 7 7 9 12 13 14 16 13
4 3 2 1 2 5 3 4 4 14 9 1 4 3 2 2 3 5 5 7 2 2 4 1 3 5 5 6 12 5 3 2 3 5 3 5 5 5 6 8 10 13 15 14 14
7 2 2 2 4 1 0 3 6 11 9 4 3 2 1 3 4 3 5 3 4 2 3 2 3 5 15 20 16 12 9 5 4 4 4 2 9 3 8 11 7 14 16 16 15
4 3 2 2 2 3 6 6 3 5 7 6 4 2 2 3 3 3 4 6 4 5 3 1 3 6 7 2 3 3 2 2 1 2 6 3 6 5 11 10 10 9 16 17 14
2 4 4 4 1 2 5 5 6 5 2 5 4 6 5 4 1 6 7 4 8 4 5 5 5 11 12 17 8 11 16 15 12 6 3 10 15 19 19 12 14 9 18 11 11
3 1 1 4 3 6 2 3 6 5 3 4 4 3 2 3 7 7 4 13 4 6 7 5 5 10 17 22 21 21 20 20 18 15 12 15 20 20 17 14 17 11 14 18 17
2 3 4 3 5 5 4 3 5 5 6 6 3 8 7 5 9 19 14 7 7 6 4 4 4 8 15 19 16 18 18 19 19 19 16 20 24 19 18 21 14 11 9 19 18
6 5 1 4 5 3 1 4 7 12 8 4 7 6 6 9 10 12 13 15 13 11 6 5 2 3 6 10 14 6 6 5 9 12 8 12 15 5 13 15 9 13 13 18 20

GFSSW_925_spd_045.txt.gz
Wind_Speed
18 18 18 18 18 18 18 18 17 17 16 16 17 19 21 24 27 14 5 3 1 2 7 10 8 4 4 2 3 2 2 6 10 8 3 5 7 2 5 6 7 5 4 16 18
20 20 19 20 20 19 19 18 18 17 16 15 16 18 21 24 20 10 1 4 5 4 6 4 4 6 1 2 2 4 4 8 3 9 8 12 12 15 6 9 10 8 14 20 2
21 21 21 21 21 20 19 19 18 17 16 15 15 17 19 16 4 5 0 1 4 4 3 2 3 2 0 1 3 3 6 3 3 2 5 7 15 11 9 15 1 12 12 14 5
22 22 22 22 22 22 21 19 18 17 15 14 14 17 14 4 1 4 1 3 3 4 5 1 2 2 2 3 4 4 4 2 3 4 5 13 14 18 16 26 8 9 9 8 10
23 23 23 24 24 24 22 20 19 17 13 12 13 11 4 2 7 4 4 5 5 5 5 1 3 2 1 4 5 4 3 5 6 8 7 11 15 17 26 25 7 10 7 9 12
24 25 25 25 26 25 24 21 19 15 11 9 9 5 1 2 3 6 7 8 9 8 5 4 4 4 3 2 1 2 3 7 3 6 5 9 13 5 25 9 8 9 9 9 9
26 27 27 27 26 26 25 22 17 10 7 5 5 1 1 10 2 2 7 9 8 11 3 9 4 2 1 5 2 3 6 5 5 5 6 6 16 23 20 2 11 5 5 8 11
29 30 30 29 28 26 24 19 13 10 6 3 1 2 6 3 9 6 8 10 6 5 5 6 4 3 2 3 8 5 5 4 5 4 6 9 24 10 7 5 12 16 5 7 9
31 31 30 31 30 26 22 17 13 4 3 6 3 3 8 10 3 6 7 4 5 9 8 6 4 3 3 3 4 5 1 2 6 4 5 8 6 4 9 6 7 10 6 5 7
32 32 31 30 28 25 17 9 7 9 10 5 1 1 6 1 6 6 5 10 4 5 6 5 4 2 3 4 3 5 3 4 5 7 3 11 14 7 6 6 8 7 10 6 8
32 32 32 29 24 17 14 3 5 3 4 6 4 3 6 8 11 5 4 2 2 6 2 3 4 2 7 7 7 4 4 6 8 10 6 10 16 11 8 5 8 9 8 8 7
34 34 32 27 20 8 4 3 3 5 6 8 9 9 18 4 4 9 2 3 2 2 2 5 3 6 5 4 2 1 2 4 5 9 9 12 19 13 4 6 6 7 9 8 8
36 35 29 23 9 3 4 5 11 6 2 6 4 4 5 11 6 8 7 4 4 3 3 4 6 4 2 2 4 2 1 4 6 6 5 9 18 8 5 4 6 6 8 8 8
39 32 27 21 2 7 2 16 10 2 4 4 2 4 3 3 4 8 8 7 2 8 4 4 4 3 3 2 3 2 3 4 6 6 3 3 14 15 8 8 5 8 8 11 12
40 30 21 5 4 1 8 16 9 1 4 3 1 2 3 3 4 3 6 3 9 6 5 8 3 5 3 4 3 6 2 1 5 9 3 6 5 14 3 14 10 10 7 7 8
37 20 9 2 2 4 15 14 2 3 1 3 3 5 3 3 4 5 5 3 2 2 3 7 3 5 5 4 4 0 2 4 4 2 3 7 10 23 14 11 6 1 5 8 8
25 8 3 4 0 10 15 3 4 4 6 3 3 5 5 5 6 5 4 4 1 1 3 4 1 1 1 1 4 4 5 4 5 3 5 5 5 19 9 7 2 5 9 8 8
13 8 4 1 6 11 5 4 6 6 3 2 3 7 4 7 3 6 5 3 5 3 2 2 5 4 2 4 5 6 7 4 5 4 9 11 6 7 2 4 5 6 8 9 10
10 5 4 4 7 8 5 5 4 3 5 4 5 3 2 3 2 6 5 1 2 2 3 2 4 4 11 6 6 1 4 6 4 3 3 5 6 8 7 5 4 7 6 9 11
8 9 4 5 7 6 5 1 2 3 6 1 2 2 3 1 1 3 3 1 4 1 2 4 6 7 4 2 6 7 5 4 1 4 7 6 6 10 6 9 8 10 9 11 12
5 3 5 5 5 5 3 3 4 4 5 3 4 3 0 1 2 3 6 4 1 4 2 4 4 4 3 6 9 3 3 1 3 4 4 8 8 5 7 8 10 13 9 11 14
6 2 12 8 4 1 0 3 4 5 4 4 3 1 3 2 3 3 4 4 3 1 2 1 2 4 8 19 15 12 11 7 4 5 4 5 18 5 9 9 8 14 13 14 14
3 3 6 4 2 3 5 4 3 3 3 4 4 3 4 1 2 4 4 5 2 3 2 3 0 5 7 4 4 2 3 1 1 2 7 5 13 1 6 9 12 13 15 16 13
2 4 4 4 2 2 4 4 4 5 2 1 3 1 3 2 4 4 5 6 6 2 4 6 4 6 9 14 13 19 17 17 11 5 7 14 25 19 15 19 19 17 12 13 12
4 1 1 4 2 3 3 3 4 5 3 4 3 1 2 4 4 6 4 6 8 7 2 6 5 7 13 16 19 21 21 20 17 16 10 19 21 15 18 18 18 16 21 12 10
2 3 4 4 4 4 1 1 2 2 3 5 4 6 6 6 9 15 7 3 7 4 6 4 4 4 14 15 15 16 16 16 15 16 16 21 24 17 14 9 12 16 18 12 13
4 2 2 4 4 2 3 1 4 8 6 7 7 6 6 9 6 12 13 13 10 8 7 5 3 3 7 6 12 8 3 3 5 8 7 7 6 8 12 13 14 17 13 11 11

GFSSW_925_spd_048.txt.gz
Wind_Speed
18 18 19 19 19 18 18 17 17 16 15 15 14 15 17 22 26 12 5 3 3 2 4 11 4 2 4 1 2 3 1 4 5 4 2 5 5 2 3 4 5 3 2 6 6
20 19 18 19 19 19 18 18 17 16 15 14 14 15 17 21 17 9 1 3 4 0 3 4 3 4 2 2 2 3 4 7 3 0 4 11 5 8 4 7 3 6 8 14 2
21 21 20 20 19 19 19 18 17 16 15 13 12 13 16 13 4 4 1 3 4 1 1 2 1 1 2 1 2 2 4 2 0 1 2 5 17 2 6 11 1 9 15 13 7
22 21 21 21 21 20 19 19 17 17 15 12 10 12 11 4 3 0 2 4 3 2 1 1 1 3 2 2 4 1 3 3 2 6 5 5 9 11 13 11 6 7 11 6 9
24 23 24 23 22 21 20 18 17 16 13 9 8 9 4 2 7 2 4 5 3 2 1 1 1 3 2 1 3 3 1 3 6 6 4 7 10 16 18 10 11 10 10 11 9
26 26 26 25 24 23 22 19 17 14 9 5 6 4 1 2 3 1 5 7 6 4 2 5 4 3 4 2 2 2 2 6 5 7 4 7 11 10 1 8 8 8 7 9 10
29 29 28 27 26 25 23 20 14 9 5 4 3 1 0 10 0 1 5 9 8 9 2 5 3 3 4 3 1 2 4 6 5 5 6 7 13 12 12 5 8 8 9 9 10
30 29 28 28 28 26 24 17 12 10 7 4 2 2 6 2 6 8 8 8 11 10 12 4 3 4 2 1 5 3 4 4 5 2 5 6 7 4 6 4 7 6 7 8 9
31 30 30 29 28 26 23 13 3 2 4 7 3 2 7 8 4 4 7 5 3 5 4 4 4 3 5 3 4 5 0 1 7 1 4 2 5 3 6 5 6 5 2 5 8
32 32 31 29 26 23 17 6 10 9 10 6 0 1 4 3 5 8 8 10 1 3 4 6 5 4 3 4 2 3 3 4 4 5 5 9 6 8 7 7 8 7 6 5 6
33 32 31 28 22 17 9 2 4 3 2 5 4 3 4 9 4 2 3 3 3 6 2 3 4 2 6 6 5 2 3 4 4 4 6 9 10 9 9 7 7 7 7 6 6
34 31 29 25 18 5 7 4 3 2 6 6 6 5 8 4 4 6 1 2 2 1 1 5 2 6 3 3 4 3 2 3 5 6 5 8 18 12 7 6 6 5 7 8 6
37 32 29 22 4 4 4 4 13 2 1 6 3 3 4 9 5 6 7 2 3 2 2 4 4 2 3 0 1 1 3 2 5 5 5 7 12 5 4 4 5 6 6 6 8
38 32 24 10 3 3 2 12 10 2 4 4 2 1 4 3 3 8 10 6 1 6 4 4 3 1 1 3 4 3 4 3 4 6 4 5 9 5 6 11 7 7 7 8 8
36 25 14 2 1 2 5 14 2 3 4 3 1 1 2 4 2 4 5 3 8 5 5 7 2 3 3 5 6 6 1 3 2 4 3 3 3 2 8 10 12 16 17 8 8
25 13 6 3 2 3 12 8 3 4 1 5 2 4 2 4 3 5 3 3 2 5 3 6 3 4 5 2 3 3 2 3 3 2 1 4 6 6 3 4 6 5 6 6 7
17 9 4 3 2 11 12 3 4 4 4 2 2 3 2 3 4 5 4 5 2 2 2 3 1 1 2 2 3 4 5 4 4 2 5 4 0 14 10 19 15 12 9 8 7
12 7 4 4 9 11 4 4 4 3 2 4 2 3 1 3 1 6 3 4 4 3 2 3 3 3 1 3 4 6 7 4 5 3 9 4 7 8 5 6 6 6 7 8 9
7 6 4 8 9 10 5 4 5 1 4 3 6 1 2 3 2 6 3 4 3 1 4 4 4 3 4 4 6 3 4 4 3 2 2 5 6 13 15 13 8 9 8 10 9
5 6 5 13 8 5 4 2 2 1 4 3 4 3 3 4 2 2 3 3 3 4 2 3 3 6 5 1 5 5 5 1 2 4 5 4 10 11 7 6 8 10 10 8 7
4 3 7 11 4 5 3 4 4 4 2 3 3 4 3 3 4 3 4 4 5 1 1 4 4 4 2 5 7 1 2 3 3 4 3 7 9 6 9 10 9 11 10 8 10
4 2 11 10 4 1 1 1 5 3 3 3 2 2 4 4 3 4 6 6 0 3 3 4 4 4 9 14 6 5 5 7 3 4 4 5 19 8 7 9 6 12 10 11 13
2 3 6 4 2 3 5 4 3 3 2 3 3 1 2 2 3 5 4 1 3 1 4 4 1 4 7 3 4 2 3 3 2 2 18 9 17 5 2 8 8 9 12 16 17
2 4 4 4 1 3 4 5 4 3 1 3 3 1 1 2 4 4 2 3 1 2 6 5 5 7 8 8 3 15 17 13 9 7 10 12 24 19 21 17 13 14 14 16 14
4 0 1 4 2 2 1 3 3 4 4 3 2 2 3 3 3 6 4 3 6 11 3 7 7 10 16 15 15 18 21 18 16 19 13 19 17 21 19 18 13 10 10 16 17
2 3 3 3 2 3 2 2 2 4 3 4 2 7 4 4 6 15 7 4 6 3 5 2 3 4 13 15 16 18 22 18 18 17 17 14 15 13 13 13 13 14 14 17 15
5 2 2 3 3 2 3 2 2 4 6 7 5 7 5 9 6 9 11 13 10 6 6 5 3 3 8 3 6 9 10 7 4 4 5 6 19 11 15 14 14 17 19 19 15